Location: Mainz-Finthen
(49.9906°N, 8.1713°E)
Time: 05:07:48
(UTC+00:00)

BlueWalker 3 - Pass Details

Date: 03 December 2022
Orbit: 499 x 517 km, 53.2° (Epoch: 28 January)

Event Time Altitude Azimuth Distance (km) Brightness Sun altitude
Rises 18:52:44 0° 292° (WNW) 2,627 6.6 -32.0°
Reaches altitude 10° 18:54:56 10° 292° (WNW) 1,735 5.4 -32.4°
Enters shadow 18:55:53 17° 291° (WNW) 1,363 4.8 -32.5°
